Location: Bonny Doon Airfield
(37.0704°N, 122.1252°W)
Time: 17:58:17
(UTC-08:00)

Vanguard 1 Rocket - Pass Details

Date: 31 October 2017
Orbit: 655 x 4222 km, 34.3° (Epoch: 24 November)

Event Time Altitude Azimuth Distance (km) Brightness Sun altitude
Rises 07:31:53 0° 267° (W) 6,249 11.1 -0.9°
Reaches altitude 10° 07:36:49 10° 266° (W) 4,650 10.4 0.1°
Maximum altitude 07:48:02 74° 185° (S) 1,297 8.3 2.2°
Drops below altitude 10° 07:53:57 10° 101° (E) 2,553 11.9 3.3°
Sets 07:55:56 0° 99° (E) 3,303 12.4 3.6°
